Regional Weather Roundup
Issued by NWS

Home | Current Version | Previous Version | Graphics & Text | Print | Product List | Glossary On
Versions: 1 2 3 4 5 6 7 8 9 10 11 12 13 14 15 16 17 18 19 20 21 22 23 24 25 26 27 28 29 30 31 32 33 34 35 36 37 38 39 40 41 42 43 44 45 46 47 48 49 50
000
ASUS43 KLMK 221410
RWRKY
KENTUCKY REGIONAL WEATHER ROUNDUP
NATIONAL WEATHER SERVICE LOUISVILLE KY
1000 AM EDT FRI MAY 22 2015

NOTE "FAIR" INDICATES FEW OR NO CLOUDS BELOW 12,000 FEET
WITH NO SIGNIFICANT WEATHER AND/OR OBSTRUCTIONS TO VISIBILITY.

KYZ001>023-026-027-061>063-070>075-221500-
WESTERN AND SOUTH CENTRAL KENTUCKY

CITY           SKY/WX    TMP DP  RH WIND       PRES   REMARKS
PADUCAH        SUNNY     61  49  64 W3        30.30R
HENDERSON      SUNNY     61  46  59 W9        30.28S
OWENSBORO      SUNNY     62  48  60 SW9       30.29R
HOPKINSVILLE   SUNNY     58  49  73 VRB3      30.31R
BOWLING GREEN  SUNNY     59  46  62 CALM      30.31R
GLASGOW        SUNNY     57  48  73 W6        30.31R
$$

KYZ024-025-028>034-038-045-046-053-221500-
NORTH CENTRAL KENTUCKY

CITY           SKY/WX    TMP DP  RH WIND       PRES   REMARKS
LOUISVILLE/SDF MOSUNNY   61  45  55 SW9       30.26S
LOUISVILLE/LOU SUNNY     61  46  57 W7        30.27R
FORT KNOX      SUNNY     60  47  63 W7        30.26R
$$

KYZ035>037-039>044-047>052-055>060-089>105-221500-
NORTHEAST KENTUCKY

CITY           SKY/WX    TMP DP  RH WIND       PRES   REMARKS
LEXINGTON      SUNNY     57  46  66 SW10      30.28R
COVINGTON      SUNNY     59  46  62 W8        30.22R
FRANKFORT      SUNNY     58  45  62 W8        30.26R
$$

KYZ054-064>069-076>088-106>120-221500-
SOUTHEAST KENTUCKY

CITY           SKY/WX    TMP DP  RH WIND       PRES   REMARKS
JACKSON        MOSUNNY   50  48  93 VRB3      30.29S
LONDON         SUNNY     56  42  59 W6        30.30S
SOMERSET       SUNNY     52  52 100 CALM      30.31S
MIDDLESBORO    MOSUNNY   53  47  79 CALM      30.31S
MONTICELLO     SUNNY     55  51  86 CALM      30.33S
$$



USA.gov is the U.S. government's official web portal to all federal, state and local government web resources and services.